Location: Arrington
(35.8681°N, 86.7092°W)
Time: 11:32:52
(UTC+00:00)

ATLAS 2AS CENTAUR R/B - Pass Details

Date: 28 February 2020
Orbit: 929 x 1283 km, 63.7° (Epoch: 05 April)

Event Time Altitude Azimuth Distance (km) Brightness Sun altitude
Rises 02:55:34 0° 226° (SW) 4,156 6.0 -39.9°
Reaches altitude 10° 02:58:23 10° 231° (SW) 3,223 5.4 -40.4°
Enters shadow 03:04:13 45° 267° (W) 1,674 3.8 -41.5°
